Hourly Data Report for September 12, 2020

GIMLI CLIMATE
MANITOBA
Current Station Operator: ECCC - MSC

50°38'00.000" N
97°03'00.000" W
230.10 m
5031042
71748
PGH

Download Data

Hourly Data (September 2020)
Hourly Data Report for September 12, 2020
TIME Temp Definition
°C
Dew Point Definition
°C
Rel Hum Definition
%
Wind Dir Definition
10's deg

Wind Spd Definition
km/h
Visibility Definition
km
Stn Press Definition
kPa
Hmdx Definition


Wind Chill Definition


Weather Definition


00:00 11.1 4.8 65 18 15   98.38     LegendNANA
01:00 10.4 5.4 71 18 17   98.38     LegendNANA
02:00 9.5 5.7 77 19 20   98.32     LegendNANA
03:00 9.1 6.1 82 19 20   98.30     LegendNANA
04:00 8.9 6.6 86 21 17   98.25     LegendNANA
05:00 8.7 6.6 87 22 13   98.20     LegendNANA
06:00 8.3 6.5 88 23 12   98.18     LegendNANA
07:00 8.8 7.1 89 20 7   98.22     LegendNANA
08:00 12.3 8.4 77 26 10   98.24     LegendNANA
09:00 15.9 9.9 67 32 14   98.24     LegendNANA
10:00 18.4 11.2 63 31 17   98.26     LegendNANA
11:00 19.5 9.2 52 32 17   98.25     LegendNANA
12:00 19.4 6.6 43 31 15   98.23     LegendNANA
13:00 20.0 5.4 38 29 14   98.24     LegendNANA
14:00 20.3 3.8 34 31 17   98.23     LegendNANA
15:00 20.1 3.8 34 30 17   98.24     LegendNANA
16:00 19.4 4.1 36 28 20   98.26     LegendNANA
17:00 18.7 5.0 41 29 19   98.31     LegendNANA
18:00 16.3 4.2 45 29 16   98.34     LegendNANA
19:00 13.7 5.4 57 29 13   98.44     LegendNANA
20:00 11.9 7.3 73 2 8   98.50     LegendNANA
21:00 11.4 7.3 76 36 10   98.55     LegendNANA
22:00 10.6 6.0 73 35 10   98.60     LegendNANA
23:00 10.1 7.1 82 33 7   98.63     LegendNANA

Notes on Data Quality.

Legend

  • E = Estimated
  • M = Missing
  • NA = Not Available*
  • [empty] = Indicates an unobserved value
Date modified: